Regional Weather Roundup
Issued by NWS Cleveland, OH

Home | Current Version | Previous Version | Graphics & Text | Print | Product List | Glossary On
Versions: 1 2 3 4 5 6 7 8 9 10 11 12 13 14 15 16 17 18 19 20 21 22 23 24 25 26 27 28 29 30 31 32 33 34 35 36 37 38 39 40 41 42 43 44 45 46 47 48 49 50
000
ASUS41 KCLE 261410
RWRCLE
OHIO REGIONAL WEATHER ROUNDUP
NATIONAL WEATHER SERVICE CLEVELAND, OH
900 AM EST FRI DEC 26 2014

NOTE: "FAIR" INDICATES FEW OR NO CLOUDS BELOW 12,000 FEET WITH NO
SIGNIFICANT WEATHER AND/OR OBSTRUCTIONS TO VISIBILITY.

OHZ001>008-015>018-024>027-034-035-043-044-261500-
   NORTHWEST OHIO

CITY           SKY/WX    TMP DP  RH WIND       PRES   REMARKS
DEFIANCE       CLEAR     35  31  85 S7        30.15R WCI  29
FINDLAY        CLEAR     36  31  82 S13       30.16F
TOLEDO EXPRESS CLEAR     33  30  88 S6        30.15R WCI  28
TOLEDO EXEC    CLEAR     34  30  85 S12       30.16F WCI  25
LIMA           CLEAR     36  31  82 S9        30.16S
$$

OHZ009>014-019>023-028>033-038-089-261500-
   NORTHEAST OHIO

CITY           SKY/WX    TMP DP  RH WIND       PRES   REMARKS
CLE-HOPKINS    CLEAR     35  29  78 S12       30.24R WCI  27
CLE-LAKEFRONT  CLEAR     36  29  75 S13       30.21R
CUY CO. ARPT   CLEAR     37  32  81 S16       30.22R
LORAIN-ELYRIA  CLEAR     33  30  88 S9        30.21S WCI  25
ASHTABULA      CLEAR     34  29  82 S12       30.23R WCI  25
AKRON-CANTON   PTCLDY    33  29  85 S12       30.23S WCI  24
WOOSTER        CLEAR     32  29  88 S9        30.22F WCI  24
MANSFIELD      CLEAR     33  31  92 S9        30.20F WCI  25
YOUNGSTOWN     MOSUNNY   34  28  79 S9        30.24R WCI  27
$$

OHZ042-051>053-060>062-070>072-077>081-261500-
  SOUTHWEST OHIO

CITY           SKY/WX    TMP DP  RH WIND       PRES   REMARKS
CINC-COVINGTON PTCLDY    35  29  78 S9        30.23S WCI  28
CINC-LUNKEN    PTCLDY    27  27 100 CALM      30.27S
HAMILTON       PTCLDY    31  30  96 E5        30.25R WCI  26
DAYTON         PTCLDY    35  32  88 S9        30.21R WCI  28
WRIGHT-PAT AFB CLEAR     32  31  93 S6        30.22R WCI  27
DAYTON GENERAL CLEAR     34  31  88 S10       30.21R WCI  26
WILMINGTON     CLEAR     33  30  88 S10       30.23R WCI  25
$$

OHZ036-037-039>041-045>050-054>059-063>069-073>076-082>088-261500-
  CENTRAL AND SOUTHEAST OHIO

CITY           SKY/WX    TMP DP  RH WIND       PRES   REMARKS
COLUMBUS       PTCLDY    33  29  85 SE7       30.24S WCI  27
OSU AIRPORT    CLEAR     33  29  85 S8        30.23S WCI  26
BOLTON FIELD   CLEAR     30  27  86 S3        30.24S
RICKENBACK AFB CLEAR     31  29  92 S8        30.24F WCI  23
NEWARK         CLEAR     31  28  89 CALM      30.24F
MARION         CLEAR     32  29  88 S9        30.21S WCI  24
LANCASTER      CLEAR     32  29  88 SE5       30.25F WCI  27
ZANESVILLE     SUNNY     31  28  89 S6        30.27S WCI  25
NEW PHILLY     SUNNY     33  29  85 SE5       30.27S WCI  29
$$


USA.gov is the U.S. government's official web portal to all federal, state and local government web resources and services.